Location: Cherry Grove
(44.1968°N, 92.8624°W)
Time: 08:10:53
(UTC-05:00)

Tiangong 2 - Visible Passes

Search period start: 22 June 2018 00:00
Search period end: 02 July 2018 00:00
Orbit: 291 x 296 km, 42.8° (Epoch: 21 June)

Date Brightness Start Highest point End Pass type
(mag) Time Alt. Az. Time Alt. Az. Time Alt. Az.
28 Jun 3.1 03:56:12 11° SSE 03:56:18 11° SSE 03:57:06 10° SE visible
29 Jun 2.3 04:01:18 18° SSE 04:01:41 18° SSE 04:03:34 10° ESE visible
30 Jun 1.6 04:06:18 24° SSW 04:07:02 29° SSE 04:09:20 10° E visible
01 Jul 1.0 04:11:14 24° SW 04:12:23 43° SSE 04:14:50 10° E visible
